Nice, France

7:06 AM CEST on June 26, 2017 (GMT +0200)
Nice-Cote d'Azur

Weather History for LFMN - May, 2013

Change the Weather History Date:

Tuesday, May 7, 2013

  Actual Average Record
Temperature  
Mean Temperature 62 °F -  
Max Temperature 66 °F 70 °F 82 °F (2003)
Min Temperature 57 °F 58 °F 46 °F (2004)
Degree Days  
Heating Degree Days 4    
Growing Degree Days 12 (Base 50)    
Moisture  
Dew Point 56 °F    
Average Humidity 79    
Maximum Humidity 88    
Minimum Humidity 59    
Precipitation  
Precipitation 0.00 in 0.06 in - ()
Sea Level Pressure  
Sea Level Pressure 29.95 in    
Wind  
Wind Speed 6 mph ()    
Max Wind Speed 12 mph    
Max Gust Speed -    
Visibility 7.1 miles    
Events      
Averages and records for this station are not official NWS values.
T = Trace of Precipitation, MM = Missing Value Source: Averaged Metar Reports

Daily Weather History Graph

Daily Weather History Graph

Search for Another Location

Airport or City:

Trip Planner

Search our weather history database for the weather conditions in past years. The results will help you decide how hot, cold, wet, or windy it might be!

Date:

Astronomy

May. 07, 2013 Rise Set
Actual Time 6:15 AM CEST 8:40 PM CEST
Civil Twilight 5:43 AM CEST 9:12 PM CEST
Nautical Twilight 5:03 AM CEST 9:53 PM CEST
Astronomical Twilight 4:18 AM CEST 10:38 PM CEST
Moon 4:45 AM CEST (5/7) 6:20 PM CEST (5/7)
Length of Visible Light 15h 29m
Length of Day
14h 25m
Waning Crescent, 7% of the Moon is Illuminated
May 7
Waning Crescent
May 10
New
May 18
First Quarter
May 25
Full
May 31
Last Quarter

Hourly Weather History & Observations

Time (CEST) Temp. Dew Point Humidity Pressure Visibility Wind Dir Wind Speed Gust Speed Precip Events Conditions
12:00 AM 60.8 °F 57.2 °F 88% 29.98 in 6.2 mi NNW 4.6 mph - N/A   Partly Cloudy
12:30 AM 60.8 °F 55.4 °F 82% 29.98 in 6.2 mi NNW 6.9 mph - N/A   Partly Cloudy
1:00 AM 59.0 °F 55.4 °F 88% 29.98 in - NNW 6.9 mph - N/A   Clear
1:30 AM 59.0 °F 55.4 °F 88% 29.98 in - NNW 6.9 mph - N/A   Clear
1:54 AM 59.0 °F 53.6 °F 82% 29.98 in - NNW 8.1 mph - N/A   Clear
2:00 AM 60 °F 54 °F 74% 29.97 in 12 mi NNW 8.1 mph - -  
2:30 AM 59.0 °F 53.6 °F 82% 29.95 in - NNW 11.5 mph - N/A   Clear
3:00 AM 59.0 °F 53.6 °F 82% 29.95 in - NNW 6.9 mph - N/A   Clear
3:30 AM 59.0 °F 53.6 °F 82% 29.95 in - NNW 5.8 mph - N/A   Clear
4:00 AM 59.0 °F 51.8 °F 77% 29.95 in 6.2 mi North 5.8 mph - N/A   Partly Cloudy
4:30 AM 59.0 °F 51.8 °F 77% 29.95 in 6.2 mi North 3.5 mph - N/A   Partly Cloudy
5:00 AM 59.0 °F 51.8 °F 77% 29.95 in 6.2 mi NE 3.5 mph - N/A   Partly Cloudy
5:30 AM 57.2 °F 51.8 °F 82% 29.95 in 6.2 mi North 4.6 mph - N/A   Partly Cloudy
5:52 AM 57.2 °F 51.8 °F 82% 29.95 in 6.2 mi NW 3.5 mph - N/A   Partly Cloudy
6:30 AM 57.2 °F 51.8 °F 82% 29.95 in 6.2 mi NNW 5.8 mph - N/A   Scattered Clouds
7:00 AM 59.0 °F 51.8 °F 77% 29.95 in 6.2 mi NNW 4.6 mph - N/A   Scattered Clouds
7:30 AM 60.8 °F 51.8 °F 72% 29.95 in 6.2 mi Variable 3.5 mph - N/A   Mostly Cloudy
8:00 AM 62 °F 51 °F 59% 29.97 in 19 mi North 4.6 mph - -   Scattered Clouds
8:00 AM 60.8 °F 51.8 °F 72% 29.95 in 6.2 mi NNW 4.6 mph - N/A   Mostly Cloudy
8:30 AM 62.6 °F 50.0 °F 63% 29.95 in 6.2 mi Variable 2.3 mph - N/A   Mostly Cloudy
8:40 AM 62.6 °F 51.8 °F 68% 29.95 in 6.2 mi Variable 2.3 mph - N/A   Mostly Cloudy
9:00 AM 62.6 °F 53.6 °F 72% 29.95 in 6.2 mi Variable 1.2 mph - N/A   Mostly Cloudy
9:30 AM 64.4 °F 55.4 °F 73% 29.95 in 6.2 mi Variable 1.2 mph - N/A   Mostly Cloudy
10:00 AM 64.4 °F 57.2 °F 77% 29.95 in 6.2 mi SE 4.6 mph - N/A   Mostly Cloudy
10:30 AM 64.4 °F 57.2 °F 77% 29.95 in 6.2 mi SE 4.6 mph - N/A   Mostly Cloudy
11:00 AM 62.6 °F 57.2 °F 82% 29.98 in 6.2 mi SE 5.8 mph - N/A   Mostly Cloudy
11:30 AM 64.4 °F 57.2 °F 77% 29.98 in 6.2 mi ESE 5.8 mph - N/A   Mostly Cloudy
12:00 PM 64.4 °F 57.2 °F 77% 29.98 in 6.2 mi ESE 5.8 mph - N/A   Mostly Cloudy
12:30 PM 64.4 °F 59.0 °F 83% 29.98 in 6.2 mi ESE 5.8 mph - N/A   Mostly Cloudy
1:00 PM 64.4 °F 59.0 °F 83% 29.98 in 6.2 mi SE 5.8 mph - N/A   Mostly Cloudy
1:30 PM 64.4 °F 59.0 °F 83% 29.98 in 6.2 mi ESE 6.9 mph - N/A   Mostly Cloudy
2:00 PM 65 °F 59 °F 74% 29.98 in 17 mi ESE 6.9 mph - -   Scattered Clouds
2:04 PM 64.4 °F 59.0 °F 83% 29.98 in 6.2 mi ESE 6.9 mph - N/A   Mostly Cloudy
2:30 PM 64.4 °F 59.0 °F 83% 29.98 in 6.2 mi ESE 6.9 mph - N/A   Mostly Cloudy
3:00 PM 64.4 °F 59.0 °F 83% 29.95 in 6.2 mi ESE 8.1 mph - N/A   Mostly Cloudy
3:30 PM 64.4 °F 59.0 °F 83% 29.95 in 6.2 mi SSE 6.9 mph - N/A   Mostly Cloudy
4:00 PM 64.4 °F 59.0 °F 83% 29.95 in 6.2 mi SSE 5.8 mph - N/A   Mostly Cloudy
4:30 PM 66.2 °F 59.0 °F 78% 29.95 in 6.2 mi SSE 4.6 mph - N/A   Mostly Cloudy
5:00 PM 66.2 °F 57.2 °F 73% 29.92 in 6.2 mi Variable 3.5 mph - N/A   Mostly Cloudy
5:30 PM 66.2 °F 59.0 °F 78% 29.92 in 6.2 mi ESE 3.5 mph - N/A   Mostly Cloudy
6:00 PM 66.2 °F 57.2 °F 73% 29.92 in 6.2 mi ESE 4.6 mph - N/A   Scattered Clouds
6:30 PM 64.4 °F 57.2 °F 77% 29.92 in 6.2 mi ESE 5.8 mph - N/A   Scattered Clouds
7:00 PM 64.4 °F 57.2 °F 77% 29.92 in 6.2 mi East 5.8 mph - N/A   Partly Cloudy
7:30 PM 64.4 °F 57.2 °F 77% 29.92 in 6.2 mi East 8.1 mph - N/A   Partly Cloudy
8:00 PM 64 °F 58 °F 73% 29.93 in 19 mi East 8.1 mph - -   Scattered Clouds
8:00 PM 64.4 °F 57.2 °F 77% 29.92 in 6.2 mi East 8.1 mph - N/A   Scattered Clouds
8:30 PM 64.4 °F 57.2 °F 77% 29.92 in 6.2 mi East 8.1 mph - N/A   Scattered Clouds
9:00 PM 64.4 °F 57.2 °F 77% 29.92 in 6.2 mi East 9.2 mph - N/A   Partly Cloudy
9:30 PM 62.6 °F 57.2 °F 82% 29.92 in 6.2 mi ESE 9.2 mph - N/A   Partly Cloudy
10:00 PM 62.6 °F 59.0 °F 88% 29.95 in 6.2 mi East 9.2 mph - N/A   Scattered Clouds
10:30 PM 62.6 °F 59.0 °F 88% 29.95 in 6.2 mi East 10.4 mph - N/A   Scattered Clouds
11:00 PM 62.6 °F 59.0 °F 88% 29.95 in 6.2 mi ENE 9.2 mph - N/A   Mostly Cloudy
11:30 PM 62.6 °F 59.0 °F 88% 29.95 in 6.2 mi East 9.2 mph - N/A   Mostly Cloudy